Time,TemperatureF,DewpointF,PressureIn,WindDirection,WindDirectionDegrees,WindSpeedMPH,WindSpeedGustMPH,Humidity,HourlyPrecipIn,Conditions,Clouds,dailyrainin,SoftwareType,DateUTC
2013-07-18 00:06:00,81.0,72.0,30.11,NNE,22,0.0,1.0,73,0.00,,,0.00,weatherlink.com 1.10,2013-07-18 04:06:00,
2013-07-18 00:21:00,80.4,72.0,30.11,NNE,22,0.0,0.0,75,0.00,,,0.00,weatherlink.com 1.10,2013-07-18 04:21:00,
2013-07-18 00:37:00,79.6,72.0,30.11,NNE,22,0.0,0.0,77,0.00,,,0.00,weatherlink.com 1.10,2013-07-18 04:37:00,
2013-07-18 00:52:00,79.4,71.0,30.10,SW,218,0.0,2.0,76,0.00,,,0.00,weatherlink.com 1.10,2013-07-18 04:52:00,
2013-07-18 01:07:00,79.5,71.0,30.10,WSW,248,0.0,1.0,75,0.00,,,0.00,weatherlink.com 1.10,2013-07-18 05:07:00,
2013-07-18 01:22:00,79.1,71.0,30.11,WSW,248,0.0,0.0,76,0.00,,,0.00,weatherlink.com 1.10,2013-07-18 05:22:00,
2013-07-18 01:37:00,78.8,71.0,30.10,WSW,248,0.0,0.0,76,0.00,,,0.00,weatherlink.com 1.10,2013-07-18 05:37:00,
2013-07-18 01:52:00,79.3,70.0,30.10,WSW,258,0.0,1.0,74,0.00,,,0.00,weatherlink.com 1.10,2013-07-18 05:52:00,
2013-07-18 02:07:00,77.8,70.0,30.10,WSW,258,0.0,1.0,78,0.00,,,0.00,weatherlink.com 1.10,2013-07-18 06:07:00,
2013-07-18 02:25:00,77.8,70.0,30.09,West,259,0.0,1.0,78,0.00,,,0.00,weatherlink.com 1.10,2013-07-18 06:25:00,
2013-07-18 02:40:00,76.9,71.0,30.09,West,259,0.0,0.0,81,0.00,,,0.00,weatherlink.com 1.10,2013-07-18 06:40:00,
2013-07-18 02:55:00,76.9,71.0,30.08,West,259,0.0,0.0,82,0.00,,,0.00,weatherlink.com 1.10,2013-07-18 06:55:00,
2013-07-18 03:10:00,77.2,71.0,30.08,West,259,0.0,0.0,81,0.00,,,0.00,weatherlink.com 1.10,2013-07-18 07:10:00,
2013-07-18 03:23:00,77.0,72.0,30.08,West,259,0.0,0.0,83,0.00,,,0.00,weatherlink.com 1.10,2013-07-18 07:23:00,
2013-07-18 03:40:00,77.6,72.0,30.08,West,259,0.0,0.0,82,0.00,,,0.00,weatherlink.com 1.10,2013-07-18 07:40:00,
2013-07-18 03:55:00,77.0,72.0,30.07,West,259,0.0,0.0,83,0.00,,,0.00,weatherlink.com 1.10,2013-07-18 07:55:00,
2013-07-18 04:10:00,76.6,72.0,30.07,West,259,0.0,0.0,85,0.00,,,0.00,weatherlink.com 1.10,2013-07-18 08:10:00,
2013-07-18 04:25:00,77.1,72.0,30.08,West,261,0.0,2.0,84,0.00,,,0.00,weatherlink.com 1.10,2013-07-18 08:25:00,
2013-07-18 04:40:00,77.6,72.0,30.08,NW,320,2.0,3.0,83,0.00,,,0.00,weatherlink.com 1.10,2013-07-18 08:40:00,
2013-07-18 04:55:00,77.6,72.0,30.08,NNW,342,0.0,1.0,83,0.00,,,0.00,weatherlink.com 1.10,2013-07-18 08:55:00,
2013-07-18 05:10:00,77.7,72.0,30.08,WNW,287,0.0,4.0,83,0.00,,,0.00,weatherlink.com 1.10,2013-07-18 09:10:00,
2013-07-18 05:25:00,77.5,72.0,30.08,West,280,0.0,3.0,83,0.00,,,0.00,weatherlink.com 1.10,2013-07-18 09:25:00,
2013-07-18 05:40:00,77.6,72.0,30.09,NW,318,0.0,4.0,83,0.00,,,0.00,weatherlink.com 1.10,2013-07-18 09:40:00,
2013-07-18 05:55:00,77.7,72.0,30.09,WNW,300,1.0,5.0,83,0.00,,,0.00,weatherlink.com 1.10,2013-07-18 09:55:00,
2013-07-18 06:10:00,77.8,72.0,30.09,WNW,294,1.0,5.0,82,0.00,,,0.00,weatherlink.com 1.10,2013-07-18 10:10:00,
2013-07-18 06:25:00,78.1,72.0,30.09,NW,311,2.0,4.0,82,0.00,,,0.00,weatherlink.com 1.10,2013-07-18 10:25:00,
2013-07-18 06:40:00,78.5,73.0,30.09,WNW,288,0.0,4.0,82,0.00,,,0.00,weatherlink.com 1.10,2013-07-18 10:40:00,
2013-07-18 06:55:00,79.0,73.0,30.09,West,275,1.0,3.0,81,0.00,,,0.00,weatherlink.com 1.10,2013-07-18 10:55:00,
2013-07-18 07:11:00,79.5,73.0,30.09,WNW,288,1.0,5.0,80,0.00,,,0.00,weatherlink.com 1.10,2013-07-18 11:11:00,
2013-07-18 07:26:00,79.9,73.0,30.10,WNW,302,1.0,6.0,79,0.00,,,0.00,weatherlink.com 1.10,2013-07-18 11:26:00,
2013-07-18 07:41:00,80.2,73.0,30.10,WNW,283,1.0,7.0,79,0.00,,,0.00,weatherlink.com 1.10,2013-07-18 11:41:00,
2013-07-18 07:56:00,80.2,73.0,30.10,West,274,1.0,7.0,79,0.00,,,0.00,weatherlink.com 1.10,2013-07-18 11:56:00,
2013-07-18 08:11:00,80.5,74.0,30.10,WSW,253,1.0,6.0,80,0.00,,,0.00,weatherlink.com 1.10,2013-07-18 12:11:00,
2013-07-18 08:26:00,80.9,74.0,30.10,WNW,303,2.0,5.0,79,0.00,,,0.00,weatherlink.com 1.10,2013-07-18 12:26:00,
2013-07-18 08:42:00,81.4,75.0,30.11,West,259,3.0,7.0,80,0.00,,,0.00,weatherlink.com 1.10,2013-07-18 12:42:00,
2013-07-18 08:57:00,83.0,75.0,30.11,WNW,294,3.0,6.0,76,0.00,,,0.00,weatherlink.com 1.10,2013-07-18 12:57:00,
2013-07-18 09:12:00,83.6,75.0,30.10,WNW,296,2.0,7.0,75,0.00,,,0.00,weatherlink.com 1.10,2013-07-18 13:12:00,
2013-07-18 09:27:00,84.1,75.0,30.10,NE,40,2.0,5.0,75,0.00,,,0.00,weatherlink.com 1.10,2013-07-18 13:27:00,
2013-07-18 09:45:00,85.6,76.0,30.10,WSW,240,1.0,7.0,72,0.00,,,0.00,weatherlink.com 1.10,2013-07-18 13:45:00,
2013-07-18 10:00:00,85.3,76.0,30.10,WNW,284,1.0,7.0,73,0.00,,,0.00,weatherlink.com 1.10,2013-07-18 14:00:00,
2013-07-18 10:15:00,85.9,76.0,30.10,West,277,3.0,4.0,71,0.00,,,0.00,weatherlink.com 1.10,2013-07-18 14:15:00,
2013-07-18 10:30:00,86.5,76.0,30.10,West,277,2.0,6.0,71,0.00,,,0.00,weatherlink.com 1.10,2013-07-18 14:30:00,
2013-07-18 10:45:00,87.9,77.0,30.10,South,178,1.0,4.0,69,0.00,,,0.00,weatherlink.com 1.10,2013-07-18 14:45:00,
2013-07-18 11:01:00,87.7,76.0,30.09,WNW,292,3.0,3.0,68,0.00,,,0.00,weatherlink.com 1.10,2013-07-18 15:01:00,
2013-07-18 11:15:00,87.9,76.0,30.09,WSW,244,3.0,5.0,68,0.00,,,0.00,weatherlink.com 1.10,2013-07-18 15:15:00,
2013-07-18 11:30:00,89.5,75.0,30.09,SSE,161,0.0,4.0,63,0.00,,,0.00,weatherlink.com 1.10,2013-07-18 15:30:00,
2013-07-18 11:45:00,90.0,75.0,30.09,ENE,74,2.0,5.0,62,0.00,,,0.00,weatherlink.com 1.10,2013-07-18 15:45:00,
2013-07-18 12:00:00,90.6,76.0,30.09,WSW,238,0.0,4.0,62,0.00,,,0.00,weatherlink.com 1.10,2013-07-18 16:00:00,
2013-07-18 12:15:00,90.1,73.0,30.09,NW,320,1.0,5.0,58,0.00,,,0.00,weatherlink.com 1.10,2013-07-18 16:15:00,
2013-07-18 12:30:00,91.3,76.0,30.08,West,263,2.0,4.0,61,0.00,,,0.00,weatherlink.com 1.10,2013-07-18 16:30:00,
2013-07-18 12:45:00,91.1,75.0,30.08,WSW,241,3.0,6.0,60,0.00,,,0.00,weatherlink.com 1.10,2013-07-18 16:45:00,
2013-07-18 13:00:00,91.4,77.0,30.08,WNW,290,0.0,2.0,63,0.00,,,0.00,weatherlink.com 1.10,2013-07-18 17:00:00,
2013-07-18 13:15:00,92.9,75.0,30.07,SW,214,0.0,6.0,57,0.00,,,0.00,weatherlink.com 1.10,2013-07-18 17:15:00,
2013-07-18 13:30:00,92.3,76.0,30.07,WNW,287,0.0,7.0,60,0.00,,,0.00,weatherlink.com 1.10,2013-07-18 17:30:00,
2013-07-18 13:45:00,92.7,76.0,30.07,SE,140,0.0,3.0,59,0.00,,,0.00,weatherlink.com 1.10,2013-07-18 17:45:00,
2013-07-18 14:00:00,92.0,75.0,30.06,West,259,4.0,6.0,57,0.00,,,0.00,weatherlink.com 1.10,2013-07-18 18:00:00,
2013-07-18 14:15:00,94.7,76.0,30.05,WSW,242,0.0,4.0,55,0.00,,,0.00,weatherlink.com 1.10,2013-07-18 18:15:00,
2013-07-18 14:30:00,94.2,74.0,30.04,NE,48,0.0,5.0,52,0.00,,,0.00,weatherlink.com 1.10,2013-07-18 18:30:00,
2013-07-18 14:46:00,93.5,73.0,30.04,NW,316,4.0,6.0,51,0.00,,,0.00,weatherlink.com 1.10,2013-07-18 18:46:00,
2013-07-18 15:01:00,94.7,71.0,30.03,NW,311,0.0,3.0,47,0.00,,,0.00,weatherlink.com 1.10,2013-07-18 19:01:00,
2013-07-18 15:16:00,95.7,72.0,30.03,SW,226,1.0,7.0,47,0.00,,,0.00,weatherlink.com 1.10,2013-07-18 19:16:00,
2013-07-18 15:31:00,94.9,73.0,30.03,WSW,254,3.0,6.0,49,0.00,,,0.00,weatherlink.com 1.10,2013-07-18 19:31:00,
2013-07-18 15:46:00,95.9,71.0,30.02,SW,235,5.0,7.0,45,0.00,,,0.00,weatherlink.com 1.10,2013-07-18 19:46:00,
2013-07-18 16:01:00,95.5,72.0,30.02,NW,320,1.0,6.0,46,0.00,,,0.00,weatherlink.com 1.10,2013-07-18 20:01:00,
2013-07-18 16:16:00,95.5,73.0,30.01,SW,217,5.0,8.0,49,0.00,,,0.00,weatherlink.com 1.10,2013-07-18 20:16:00,
2013-07-18 16:31:00,95.6,72.0,30.01,West,267,0.0,6.0,46,0.00,,,0.00,weatherlink.com 1.10,2013-07-18 20:31:00,
2013-07-18 16:47:00,94.8,75.0,30.01,SW,233,0.0,8.0,52,0.00,,,0.00,weatherlink.com 1.10,2013-07-18 20:47:00,
2013-07-18 17:02:00,95.3,74.0,30.00,WSW,252,1.0,4.0,50,0.00,,,0.00,weatherlink.com 1.10,2013-07-18 21:02:00,
2013-07-18 17:17:00,94.7,76.0,30.00,West,273,0.0,6.0,54,0.00,,,0.00,weatherlink.com 1.10,2013-07-18 21:17:00,
2013-07-18 17:32:00,96.4,76.0,30.00,SW,225,1.0,4.0,52,0.00,,,0.00,weatherlink.com 1.10,2013-07-18 21:32:00,
2013-07-18 17:48:00,96.7,76.0,29.99,South,189,1.0,3.0,51,0.00,,,0.00,weatherlink.com 1.10,2013-07-18 21:48:00,
2013-07-18 18:03:00,95.3,75.0,29.99,South,184,1.0,5.0,52,0.00,,,0.00,weatherlink.com 1.10,2013-07-18 22:03:00,
2013-07-18 18:18:00,91.7,74.0,30.00,SW,229,0.0,1.0,56,0.00,,,0.00,weatherlink.com 1.10,2013-07-18 22:18:00,
2013-07-18 18:34:00,90.5,74.0,30.00,SW,226,0.0,1.0,59,0.00,,,0.00,weatherlink.com 1.10,2013-07-18 22:34:00,
2013-07-18 18:48:00,89.2,75.0,30.00,SW,226,0.0,0.0,63,0.00,,,0.00,weatherlink.com 1.10,2013-07-18 22:48:00,
2013-07-18 19:05:00,89.3,75.0,30.00,SW,226,0.0,1.0,63,0.00,,,0.00,weatherlink.com 1.10,2013-07-18 23:05:00,
2013-07-18 19:20:00,88.5,76.0,30.01,SW,226,0.0,0.0,67,0.00,,,0.00,weatherlink.com 1.10,2013-07-18 23:20:00,
2013-07-18 19:35:00,87.9,76.0,30.02,SW,236,0.0,3.0,68,0.00,,,0.00,weatherlink.com 1.10,2013-07-18 23:35:00,
2013-07-18 19:50:00,87.7,75.0,30.02,SW,236,0.0,0.0,67,0.00,,,0.00,weatherlink.com 1.10,2013-07-18 23:50:00,
2013-07-18 20:05:00,88.0,75.0,30.02,SW,236,0.0,1.0,65,0.00,,,0.00,weatherlink.com 1.10,2013-07-19 00:05:00,
2013-07-18 20:20:00,86.9,75.0,30.02,SW,223,1.0,3.0,67,0.00,,,0.00,weatherlink.com 1.10,2013-07-19 00:20:00,
2013-07-18 20:36:00,86.6,75.0,30.02,West,276,0.0,1.0,69,0.00,,,0.00,weatherlink.com 1.10,2013-07-19 00:36:00,
2013-07-18 20:51:00,86.2,75.0,30.00,West,275,0.0,1.0,69,0.00,,,0.00,weatherlink.com 1.10,2013-07-19 00:51:00,
2013-07-18 21:07:00,85.1,75.0,30.01,West,275,0.0,1.0,72,0.00,,,0.00,weatherlink.com 1.10,2013-07-19 01:07:00,
2013-07-18 21:22:00,84.9,76.0,30.00,WSW,244,0.0,3.0,74,0.00,,,0.00,weatherlink.com 1.10,2013-07-19 01:22:00,
2013-07-18 21:37:00,84.4,75.0,29.99,WSW,244,0.0,0.0,74,0.00,,,0.00,weatherlink.com 1.10,2013-07-19 01:37:00,
2013-07-18 21:53:00,83.6,75.0,30.00,WSW,246,0.0,1.0,75,0.00,,,0.00,weatherlink.com 1.10,2013-07-19 01:53:00,
2013-07-18 22:09:00,83.4,75.0,30.00,WSW,244,0.0,2.0,76,0.00,,,0.00,weatherlink.com 1.10,2013-07-19 02:09:00,
2013-07-18 22:23:00,83.0,75.0,29.99,WSW,240,0.0,1.0,77,0.00,,,0.00,weatherlink.com 1.10,2013-07-19 02:23:00,
2013-07-18 22:38:00,82.4,75.0,29.99,WSW,240,0.0,0.0,79,0.00,,,0.00,weatherlink.com 1.10,2013-07-19 02:38:00,
2013-07-18 22:54:00,82.3,75.0,29.99,WSW,240,0.0,2.0,78,0.00,,,0.00,weatherlink.com 1.10,2013-07-19 02:54:00,
2013-07-18 23:08:00,81.9,74.0,30.00,WSW,240,0.0,1.0,78,0.00,,,0.00,weatherlink.com 1.10,2013-07-19 03:08:00,
2013-07-18 23:25:00,81.6,74.0,30.00,WSW,240,0.0,1.0,77,0.00,,,0.00,weatherlink.com 1.10,2013-07-19 03:25:00,
2013-07-18 23:40:00,81.7,73.0,30.00,WSW,240,0.0,0.0,75,0.00,,,0.00,weatherlink.com 1.10,2013-07-19 03:40:00,
2013-07-18 23:55:00,80.9,73.0,30.00,WSW,240,0.0,0.0,77,0.00,,,0.00,weatherlink.com 1.10,2013-07-19 03:55:00,